Flag Weather past 2 weeks in Wheaton, Illinois, U.S.A.

Now
50 °F

Overcast.


Feels Like: 47 °F
Forecast: 33 / 53 °F
Wind: 7 mph from Southwest

Location: Dupage Airport

Current Time: Oct 30, 2014 at 6:12:00 PM

Latest Report: Oct 30, 2014 at 4:52 PM


Visibility: 10 mi

Pressure: 30.07 "Hg

Humidity: 57%

Dew point: 35 °F

Location of WheatonLocation

Historic Weather in Wheaton — Graph

°F

Wheaton temperature yesterday

Maximum temperature yesterday: 49 °F (at 4:52 PM)
Minimum temperature yesterday: 34 °F (at 11:52 PM)
Average temperature yesterday: 44 °F

Past Weeks' High & Low Weather Summary

 TemperatureHumidityPressure
High77 °F (Oct 27, 1:52 PM)97% (Oct 23, 7:52 AM)30.37 "Hg (Oct 23, 7:52 AM)
Low30 °F (Oct 19, 6:54 AM)21% (Oct 25, 3:52 PM)29.56 "Hg (Oct 17, 4:52 AM)
Average51 °F69%29.98 "Hg
* Reported Oct 15 4:52 PM — Oct 30 4:52 PM, Wheaton, Weather by CustomWeather, © 2014

Note: Actual official high and low records may vary slightly from our data, if they occured in-between our weather recording intervals... More about our weather records

Advertising

Wheaton weather history for previous 24 hours

 ConditionsComfort  
Time TempWeatherWind HumidityBarometerVisibility
4:52 PM
Oct 30
50 °FOvercast.7 mph57%30.07 "Hg10 mi
3:52 PM51 °FOvercast.7 mph54%30.06 "Hg10 mi
2:52 PM52 °FOvercast.8 mph53%30.06 "Hg10 mi
1:52 PM50 °FOvercast.14 mph57%30.08 "Hg10 mi
12:52 PM49 °FPartly sunny.13 mph59%30.10 "Hg10 mi
11:52 AM49 °FPartly sunny.13 mph61%30.13 "Hg10 mi
10:52 AM48 °FScattered clouds.8 mph61%30.14 "Hg10 mi
9:52 AM44 °FScattered clouds.6 mph73%30.14 "Hg10 mi
8:52 AM36 °FSunny.3 mph89%30.15 "Hg8 mi
7:52 AM33 °FClear.No wind88%30.14 "Hg9 mi
6:52 AM33 °FClear.3 mph88%30.14 "Hg10 mi
5:52 AM31 °FClear.No wind92%30.15 "Hg10 mi
4:52 AM32 °FClear.3 mph92%30.14 "Hg8 mi
3:52 AM33 °FClear.No wind92%30.15 "Hg7 mi
2:52 AM33 °FClear.No wind85%30.15 "Hg10 mi
1:52 AM33 °FClear.No wind85%30.15 "Hg10 mi
12:52 AM34 °FClear.No wind82%30.15 "Hg10 mi
11:52 PM
Oct 29
34 °FClear.No wind82%30.14 "Hg10 mi
10:52 PM36 °FClear.No wind85%30.14 "Hg10 mi
9:52 PM39 °FClear.No wind73%30.15 "Hg10 mi
8:52 PM41 °FPassing clouds.5 mph67%30.15 "Hg10 mi
7:52 PM46 °FOvercast.6 mph61%30.14 "Hg10 mi
6:52 PM45 °FOvercast.No wind63%30.14 "Hg10 mi
Weather by CustomWeather, © 2014

See weather overviewHow to use our weather pages